STARLINK-35966

Last updated on Mon Dec 15 2025 00:02:12 GMT+0000 (Coordinated Universal Time)

1 66821U 25280A 25348.25003472 -.01707073 00000+0 -13125-1 0 9994 2 66821 69.9951 194.5459 0003686 273.2588 25.0443 15.74680717 3141
UTC large
Height (km)
Speed (km/s)
/
Latitude / Longitude
Inclination (degrees)
Orbital Period (minutes)
Azimuth
Elevation
Range (km)
Doppler Factor

Next 0 passes for location: London (51.5072 / 0.1276)

Sorry there are no passes over London.